Total_Precipitation_Accumulation
0.84 1.10 1.38 1.62 1.96 2.38 2.56 2.57 2.53 2.71 2.92 2.74 2.50 2.29 2.06 1.84 1.66 1.55 1.44 1.35 1.26 1.16 1.06 0.94 0.92 0.88 0.82 0.77 0.73 0.68 0.63 0.60 0.61 0.63 0.57 0.48 0.44 0.41 0.35 0.32 0.30 0.27 0.25
0.74 0.99 1.23 1.49 1.69 2.20 2.48 2.49 2.58 2.72 2.90 2.78 2.64 2.55 2.46 2.25 2.04 1.90 1.65 1.45 1.35 1.25 1.20 1.08 0.96 0.96 0.96 0.90 0.86 0.83 0.79 0.74 0.76 0.82 0.84 0.71 0.57 0.43 0.36 0.35 0.35 0.34 0.35
0.69 0.85 1.05 1.29 1.41 1.71 2.11 2.27 2.33 2.53 2.68 2.87 3.13 3.11 2.97 2.60 2.16 1.88 1.78 1.65 1.59 1.49 1.35 1.32 1.22 1.07 1.03 0.97 0.90 0.85 0.84 0.82 0.81 0.82 0.94 0.89 0.71 0.54 0.43 0.37 0.34 0.35 0.38
0.66 0.80 0.95 1.05 1.20 1.37 1.70 2.05 2.25 2.39 2.44 2.54 2.83 2.95 2.81 2.44 2.08 1.86 1.87 1.92 1.85 1.79 1.71 1.58 1.50 1.35 1.21 1.11 1.06 1.00 0.97 0.98 0.95 0.90 0.85 0.83 0.76 0.74 0.61 0.44 0.39 0.38 0.38
0.73 0.80 0.86 0.88 0.98 1.16 1.47 1.79 2.03 2.26 2.31 2.25 2.37 2.62 2.73 2.61 2.42 2.22 2.10 2.02 1.95 1.84 1.81 1.76 1.69 1.56 1.45 1.36 1.32 1.25 1.18 1.16 1.11 1.03 0.96 0.94 0.84 0.78 0.80 0.61 0.44 0.45 0.44
0.79 0.80 0.81 0.80 0.87 0.99 1.19 1.48 1.73 2.04 2.22 2.17 2.21 2.30 2.37 2.48 2.42 2.23 2.20 2.11 2.08 1.95 1.80 1.76 1.76 1.69 1.65 1.59 1.56 1.53 1.43 1.33 1.26 1.21 1.13 1.12 1.07 0.92 0.94 0.87 0.65 0.60 0.54
0.70 0.68 0.67 0.68 0.78 0.90 1.00 1.18 1.33 1.58 1.86 1.99 2.03 2.05 2.15 2.21 2.28 2.29 2.25 2.21 2.08 1.93 1.84 1.76 1.77 1.78 1.69 1.68 1.68 1.63 1.53 1.45 1.38 1.34 1.30 1.23 1.16 1.12 1.15 1.20 1.03 0.88 0.72
0.72 0.68 0.65 0.69 0.80 0.83 0.90 1.02 1.14 1.26 1.48 1.68 1.75 1.79 1.92 1.99 1.97 2.08 2.09 2.06 2.00 1.91 1.90 1.87 1.76 1.76 1.75 1.69 1.67 1.63 1.53 1.47 1.43 1.38 1.36 1.32 1.24 1.25 1.29 1.36 1.41 1.30 1.03
0.65 0.67 0.68 0.71 0.76 0.80 0.84 0.93 1.02 1.05 1.16 1.36 1.50 1.60 1.66 1.67 1.61 1.63 1.66 1.71 1.76 1.78 1.76 1.77 1.69 1.61 1.59 1.58 1.59 1.57 1.49 1.43 1.36 1.32 1.31 1.28 1.21 1.22 1.27 1.34 1.49 1.66 1.50
0.64 0.67 0.69 0.67 0.67 0.72 0.76 0.84 0.88 0.88 0.93 1.04 1.14 1.31 1.41 1.41 1.43 1.44 1.40 1.38 1.38 1.43 1.47 1.52 1.53 1.47 1.44 1.43 1.42 1.39 1.39 1.38 1.28 1.23 1.22 1.19 1.14 1.16 1.22 1.29 1.37 1.53 1.64
0.66 0.70 0.72 0.70 0.68 0.72 0.75 0.77 0.72 0.75 0.78 0.86 0.92 0.99 1.12 1.19 1.24 1.25 1.17 1.18 1.14 1.11 1.15 1.16 1.19 1.23 1.25 1.26 1.25 1.24 1.25 1.27 1.23 1.20 1.20 1.19 1.16 1.16 1.16 1.19 1.23 1.30 1.42
0.58 0.63 0.69 0.69 0.68 0.71 0.74 0.77 0.70 0.68 0.71 0.76 0.77 0.81 0.91 1.03 1.08 1.12 1.06 1.00 1.01 0.95 0.94 0.94 0.94 0.95 0.97 1.01 1.03 1.02 1.05 1.09 1.10 1.09 1.11 1.12 1.14 1.18 1.15 1.14 1.13 1.11 1.12
0.51 0.53 0.56 0.61 0.65 0.67 0.69 0.76 0.74 0.66 0.64 0.66 0.66 0.71 0.78 0.87 0.93 0.94 0.97 0.90 0.93 0.87 0.83 0.81 0.81 0.80 0.80 0.82 0.87 0.92 0.94 0.97 0.97 0.98 0.99 1.00 1.04 1.07 1.02 1.01 0.99 0.97 0.99
0.40 0.41 0.45 0.50 0.54 0.59 0.63 0.66 0.69 0.69 0.69 0.66 0.62 0.65 0.69 0.81 0.85 0.81 0.84 0.84 0.89 0.91 0.82 0.76 0.74 0.74 0.76 0.79 0.82 0.88 0.92 0.93 0.94 0.95 0.95 0.92 0.90 0.87 0.86 0.89 0.91 0.98 1.06
0.30 0.32 0.33 0.36 0.41 0.45 0.49 0.54 0.59 0.62 0.66 0.68 0.65 0.64 0.64 0.72 0.78 0.72 0.73 0.75 0.78 0.89 0.89 0.84 0.79 0.76 0.76 0.80 0.85 0.87 0.91 0.92 0.92 0.90 0.88 0.86 0.87 0.84 0.82 0.84 0.88 0.97 1.11
0.21 0.22 0.22 0.24 0.26 0.30 0.35 0.41 0.46 0.51 0.59 0.62 0.64 0.63 0.61 0.65 0.74 0.72 0.70 0.71 0.76 0.84 0.91 0.95 0.93 0.87 0.84 0.96 0.95 0.89 0.90 0.93 0.92 0.88 0.83 0.80 0.84 0.81 0.81 0.84 0.91 1.05 1.20
0.15 0.15 0.15 0.16 0.17 0.20 0.25 0.29 0.34 0.39 0.46 0.54 0.59 0.62 0.65 0.68 0.73 0.75 0.75 0.80 0.87 0.93 0.95 1.00 1.03 1.01 1.03 1.06 0.94 0.91 0.85 0.85 0.86 0.84 0.80 0.76 0.73 0.78 0.72 0.78 0.90 0.99 1.09
0.14 0.16 0.16 0.16 0.16 0.17 0.17 0.19 0.25 0.31 0.36 0.41 0.49 0.53 0.59 0.63 0.66 0.73 0.78 0.83 0.89 0.95 0.99 1.02 1.02 0.98 0.98 0.98 0.87 0.84 0.78 0.78 0.79 0.78 0.75 0.76 0.77 0.76 0.81 0.87 0.93 0.84 0.79
0.13 0.14 0.14 0.14 0.15 0.14 0.15 0.17 0.22 0.28 0.32 0.40 0.47 0.52 0.60 0.63 0.67 0.74 0.77 0.81 0.87 0.91 0.90 0.90 0.91 0.91 0.91 0.88 0.79 0.75 0.70 0.72 0.70 0.68 0.67 0.68 0.70 0.84 1.00 1.05 1.04 0.86 0.70
0.12 0.13 0.13 0.14 0.16 0.18 0.20 0.22 0.26 0.30 0.33 0.40 0.48 0.51 0.59 0.69 0.72 0.75 0.74 0.73 0.78 0.84 0.81 0.77 0.75 0.74 0.75 0.79 0.73 0.70 0.66 0.68 0.66 0.63 0.61 0.67 0.69 0.83 0.99 0.97 1.01 0.96 0.79
0.12 0.13 0.14 0.16 0.21 0.26 0.28 0.29 0.32 0.37 0.38 0.40 0.45 0.45 0.50 0.56 0.60 0.62 0.64 0.65 0.65 0.67 0.64 0.62 0.62 0.59 0.60 0.64 0.62 0.60 0.58 0.61 0.63 0.59 0.54 0.55 0.72 0.83 0.90 0.87 0.80 0.90 0.97
0.15 0.15 0.17 0.18 0.20 0.27 0.33 0.34 0.33 0.35 0.35 0.35 0.39 0.40 0.43 0.46 0.48 0.51 0.54 0.56 0.55 0.55 0.52 0.50 0.50 0.49 0.49 0.53 0.53 0.55 0.57 0.62 0.59 0.54 0.50 0.53 0.69 0.71 0.71 0.71 0.77 0.93 0.93
0.15 0.14 0.15 0.16 0.17 0.21 0.27 0.35 0.35 0.33 0.33 0.34 0.37 0.37 0.36 0.37 0.41 0.42 0.44 0.45 0.44 0.44 0.43 0.42 0.41 0.41 0.42 0.48 0.55 0.56 0.61 0.64 0.58 0.53 0.58 0.61 0.63 0.59 0.59 0.69 0.82 0.81 0.75
0.14 0.14 0.14 0.15 0.18 0.19 0.21 0.25 0.28 0.29 0.30 0.30 0.32 0.34 0.35 0.33 0.32 0.34 0.37 0.40 0.41 0.41 0.40 0.40 0.39 0.37 0.39 0.42 0.46 0.52 0.55 0.56 0.58 0.59 0.59 0.57 0.55 0.55 0.58 0.64 0.67 0.68 0.78
0.14 0.15 0.15 0.15 0.17 0.16 0.17 0.17 0.18 0.21 0.24 0.27 0.27 0.28 0.29 0.30 0.30 0.29 0.32 0.36 0.38 0.44 0.48 0.48 0.47 0.45 0.43 0.43 0.53 0.58 0.56 0.58 0.59 0.61 0.55 0.51 0.51 0.51 0.51 0.55 0.58 0.64 0.78
0.14 0.15 0.15 0.14 0.15 0.15 0.16 0.16 0.16 0.18 0.21 0.23 0.24 0.25 0.26 0.27 0.27 0.28 0.28 0.31 0.34 0.40 0.45 0.50 0.52 0.50 0.49 0.52 0.55 0.55 0.59 0.63 0.65 0.63 0.56 0.53 0.52 0.54 0.55 0.58 0.62 0.66 0.79